Location: Bermeries
(50.2863°N, 3.7551°E)
Time: 14:26:53
(UTC+00:00)

USA 234 - Pass Details

Date: 23 May 2024
Orbit: 1100 x 1107 km, 123.0° (Epoch: 12 June)

Event Time Altitude Azimuth Distance (km) Brightness Sun altitude
Exits shadow 00:56:33 13° 153° (SSE) 2,764 5.0 -17.2°
Maximum altitude 01:02:14 46° 224° (SW) 1,443 3.5 -16.9°
Drops below altitude 10° 01:08:30 10° 297° (WNW) 2,964 5.6 -16.5°
Sets 01:11:07 0° 303° (WNW) 3,924 6.3 -16.4°
